STARLINK-1744 (46587 NORAD) Tracking and Keplerian Element Data

This shows tracking and keplerian element data for the satellite.

Feedback or suggestion? Click here.




ElementValue
Catalog46587
NameSTARLINK-1744
Epoch Orbit1008
Epoch Day339.00002315
Epoch Year2020
RAAN148.3863
Inclination52.9948
Eccentricity0.0001643
Argument of Perigee324.7368
Mean Anonmoly233.7717
Mean Motion15.58837639
Decay Rate0.00034839
L11 46587U 20070BH 20339.00002315 .00034839 00000-0 44683-3 0 9992
L22 46587 52.9948 148.3863 0001643 324.7368 233.7717 15.58837639 10083

Live tracking and technical data element details for STARLINK-1744 (NORAD 46587). STARLINK-1744 can be tracked NOW for your location showing map with azimuth and elevation plus other details from your city location.

Track the satellite on the map from your city or location and see movement details for azimuth, elevation, latitude, longitude, range, height, and movement on the map or in text.







IsCatalogInMostPopularTable: catalog: 46587, numindb: 16
Update: records affected: 1



GetName: 46587 STARLINK-1744

Hit Count: updated at: Sat, 05 Dec 2020 05:08:45 GMT